Regional Weather Roundup
Issued by NWS

Home | Current Version | Previous Version | Text Only | Print | Product List | Glossary On
Versions: 1 2 3 4 5 6 7 8 9 10 11 12 13 14 15 16 17 18 19 20 21 22 23 24 25 26 27 28 29 30 31 32 33 34 35 36 37 38 39 40 41 42 43 44 45 46 47 48 49 50
000
ASUS43 KIND 191900
RWRIN

WEATHER ROUNDUP FOR INDIANA
NATIONAL WEATHER SERVICE INDIANAPOLIS IN
300 PM EDT THU OCT 19 2017

NOTE: "FAIR" INDICATES FEW OR NO CLOUDS BELOW 12,000 FEET WITH NO
SIGNIFICANT WEATHER AND/OR OBSTRUCTIONS TO VISIBILITY.

* - STATION DOES NOT REPORT WEATHER SUCH AS PRECIPITATION OR FOG.

+ - STATION NOT QUALITY CONTROLLED BY THE NATIONAL WEATHER SERVICE.
    USE DATA WITH CAUTION...ESPECIALLY DEWPOINT AND RELATIVE
    HUMIDITY OBSERVATIONS.

INZ001>003-010>013-019-020-192000-
NORTHWEST INDIANA

CITY           SKY/WX    TMP DP  RH WIND       PRES   REMARKS
GARY /AIRPORT/ PTSUNNY   66  12  12 NE5       30.19F
KNOX *+        FAIR      70  34  26 N7        30.17S
LA PORTE +     FAIR      66  31  27 N6        30.19S
MICHIGAN CITY+ FAIR      63  36  36 N3        30.19S
MONTICELLO +   FAIR      72  48  42 W6        30.16F
RENSSELAER +   FAIR      72  32  23 CALM      30.17F

$$

LMZ046-743>745-192000-
SOUTHERN LAKE MICHIGAN

STATION/POSITION TIME  TEMP    WIND        PRES    WAVE
                       AIR SEA DIR/SP/G            HT
                 (UTC) (F)     (DEG/KT/KT) (MB)    (FT)
BURNS HARBOR     1840   60     340/  3/  4 1022.7F
MICHIGAN CITY    1830   63     330/  3/  4   N/A
5NW MICH CITY    1850   60 59  340/  2/  4   N/A     1

$$

INZ004-005-014>016-021>024-192000-
NORTH CENTRAL INDIANA

CITY           SKY/WX    TMP DP  RH WIND       PRES   REMARKS
ELKHART        FAIR      68  30  24 NW12      30.17F
GOSHEN         FAIR      68  43  40 W9        30.16F
PERU/GRISSOM   FAIR      71  51  48 W3        30.17F
SOUTH BEND     FAIR      67  30  25 NW12      30.18S
WARSAW +       FAIR      68  41  37 W7        30.17S

$$

INZ006>009-017-018-025>027-192000-
NORTHEAST INDIANA

CITY           SKY/WX    TMP DP  RH WIND       PRES   REMARKS
AUBURN +       FAIR      70  43  37 W6        30.16F
FORT WAYNE     FAIR      72  50  45 W12       30.16F
KENDALLVILLE + FAIR      69  41  35 W8        30.16F

$$

INZ028-029-035-036-043>045-051>053-192000-
WEST CENTRAL INDIANA

CITY           SKY/WX    TMP DP  RH WIND       PRES   REMARKS
GREENCASTLE +  FAIR      72  50  46 SW3       30.19F
LAFAYETTE      FAIR      70  52  52 CALM      30.17F
TERRE HAUTE    FAIR      73  51  46 VRB7      30.19F

$$

INZ030>032-037>040-046>048-054>057-064-065-192000-
CENTRAL INDIANA

CITY           SKY/WX    TMP DP  RH WIND       PRES   REMARKS
ANDERSON       SUNNY     72  50  46 SW12      30.19
COLUMBUS       SUNNY     72  45  37 SW10      30.19F
FRANKFORT +    CLOUDY    74  53  46 W7        30.19F
GREENWOOD *+   FAIR      77  53  44 SW7       30.19F
INDIANAPOLIS   FAIR      73  51  46 SW10      30.18F
-EAGLE CREEK   FAIR      73  50  44 SW5       30.17F
KOKOMO +       FAIR      71  52  50 W7        30.18F
MT COMFORT *+  FAIR      72  55  56 W8        30.19S
SHELBYVILLE    FAIR      73  49  42 SW9       30.18S

$$

INZ033-034-041-042-049-050-058-059-192000-
EAST CENTRAL INDIANA

CITY           SKY/WX    TMP DP  RH WIND       PRES   REMARKS
MUNCIE         FAIR      73  49  42 W6        30.18S
RICHMOND +     FAIR      72  48  43 SW7       30.20F

$$

INZ060-061-067>069-081>083-085>088-192000-
SOUTHWEST INDIANA

CITY           SKY/WX    TMP DP  RH WIND       PRES   REMARKS
EVANSVILLE     FAIR      74  50  42 SW5       30.21F

$$

INZ062-063-066-070>080-084-089>092-192000-
SOUTH CENTRAL AND SOUTHEAST INDIANA

CITY           SKY/WX    TMP DP  RH WIND       PRES   REMARKS
BLOOMINGTON    FAIR      72  49  44 S6        30.19F
MADISON *+     FAIR      73  45  35 SW10      30.23F
SEYMOUR +      FAIR      75  52  43 SW13      30.19F

$$





USA.gov is the U.S. government's official web portal to all federal, state and local government web resources and services.